map of UTP home
Great Circle Mapper logo
UTP - Airport
Location
City:  Rayong, Rayong, Thailand
Name:U-Taphao International Airport
ICAO / IATA:VTBU / UTP

Details
Type:Airport (Aerodrome, Airfield)
Use:Military, International (customs port of entry)
Latitude:12°40'48"N (12.679944)
Longitude:101°00'18"E (101.005028)
Datum:WGS 1984
Elevation:42 ft (13 m)
Variation:0.53°W (WMM2015 magnetic declination)
0.00° annual change
Runways:1
Longest:11500 × 197 ft (3505 × 60 m), paved

Time
Time Zone:UTC+7
Local Time:

Weather
METAR:VTBU 091100Z 33004KT 3000 HZ NSC 26/12 Q1012 A2991 NOSIG
TAF:VTBU 090500Z 0906/1006 18006KT 3000 HZ NSC
BECMG 0912/0914 33004KT 2000 HZ
BECMG 0918/0920 03006KT

Related Locations
Nearby:
Farthest:LIM: 12312 mi / 19814 km
Lima (Callao) [Jorge Chávez Intl], CAL, PE

Find:

   beyond  
but within

Other Information
Maps:
NOTAMs:
Links:
Sources:

  
flag of Thailand   

Airport Diagram

Airport diagram for UTP

Airport diagram (OBSOLETE) from NGA

Sectional Chart

Flight Planning
at skyvector.com

Satellite Image

Google Maps Satellite view

 

Copyright © 2004-2016 Karl L. Swartz. All rights reserved.
The Great Circle Mapper name and logo are trademarks of the Great Circle Mapper.
All other trademarks mentioned herein belong to their respective owners.
Please see credits for attibutions and further copyright information.

  Follow gcmap on Facebook Follow gcmap on Twitter Follow gcmap on Google+ GCmap on LinkedIn

hCard Microformat

Geo Microformat